GW3666 Weather Reports


time (UTC)temp
C
wind
direction
speed
KPH
gust
KPH
rain 1hr
cm
rain 24hr
cm
rain mn
cm
humidity
%
barometer
mb
20260505140206 13 292 0.0 0.0 0.00 0.00 0.00 91 1015.1
20260505130130 12 73 0.0 0.0 0.00 0.00 0.00 92 1014.6
20260505124619 12 199 0.0 0.0 0.00 0.00 0.00 92 1014.4
20260505124116 12 162 0.0 0.0 0.00 0.00 0.00 92 1014.4
20260505123612 12 164 0.0 0.0 0.00 0.00 0.00 92 1014.5
20260505123108 12 110 4.8 4.8 0.00 0.00 0.00 92 1014.5
20260505122604 12 57 0.0 0.0 0.00 0.00 0.00 92 1014.4
20260505122102 12 86 0.0 0.0 0.00 0.00 0.00 92 1014.3
20260505121553 12 332 0.0 0.0 0.00 0.00 0.00 92 1014.4
20260505121050 12 39 0.0 0.0 0.00 0.00 0.00 92 1014.5
20260505120546 12 7 0.0 0.0 0.00 0.00 0.00 92 1014.3
20260505120042 12 343 0.0 0.0 0.00 0.00 0.00 92 1014.1
20260505115536 12 228 0.0 0.0 0.00 0.00 0.00 92 1014.3
20260505115034 12 47 0.0 0.0 0.00 0.00 0.00 92 1014.1
20260505114531 12 274 0.0 0.0 0.00 0.00 0.00 92 1014.3
20260505114027 12 47 0.0 0.0 0.00 0.00 0.00 92 1014.2
20260505113524 13 108 0.0 0.0 0.00 0.00 0.00 92 1014.4
20260505113020 13 172 4.8 4.8 0.00 0.00 0.00 92 1014.3
20260505112516 13 178 0.0 1.6 0.00 0.00 0.00 92 1014.4
20260505112014 13 197 1.6 3.2 0.00 0.00 0.00 93 1014.3
20260505111508 13 187 0.0 0.0 0.00 0.00 0.00 93 1014.3
20260505111005 13 194 3.2 3.2 0.00 0.00 0.00 93 1014.4
20260505110502 13 60 0.0 0.0 0.00 0.00 0.00 93 1014.3
20260505101933 13 329 0.0 3.2 0.00 0.00 0.00 93 1014.0
20260505101427 13 83 1.6 3.2 0.00 0.00 0.00 94 1013.8
20260505100923 13 22 0.0 0.0 0.00 0.00 0.00 94 1013.8
20260505100420 12 152 0.0 0.0 0.00 0.00 0.00 94 1013.8
20260505095915 12 78 0.0 0.0 0.00 0.00 0.00 94 1013.8
20260505095413 12 141 0.0 0.0 0.00 0.00 0.00 94 1013.6
20260505094909 12 350 0.0 0.0 0.00 0.00 0.00 94 1013.9
20260505094406 12 80 0.0 0.0 0.00 0.00 0.00 94 1013.4
20260505093901 12 43 0.0 0.0 0.00 0.00 0.00 94 1013.5
20260505093359 12 4 0.0 0.0 0.00 0.00 0.00 94 1013.5
20260505092856 12 150 1.6 3.2 0.00 0.00 0.00 95 1013.4
20260505092354 12 324 3.2 8.0 0.00 0.00 0.00 95 1013.4
20260505091851 12 342 0.0 0.0 0.00 0.00 0.00 95 1013.6
20260505091349 12 185 0.0 0.0 0.00 0.00 0.00 96 1013.4
20260505090847 12 90 0.0 0.0 0.00 0.00 0.00 96 1013.4
20260505090345 12 165 0.0 0.0 0.00 0.00 0.00 97 1013.5
20260505085842 11 62 0.0 1.6 0.00 0.00 0.00 97 1013.6
20260505085340 12 334 0.0 0.0 0.00 0.00 0.00 96 1013.3
20260505084837 12 80 0.0 1.6 0.00 0.00 0.00 96 1013.1
20260505084335 11 266 0.0 0.0 0.00 0.00 0.00 96 1013.4
20260505083832 12 179 0.0 0.0 0.00 0.00 0.00 96 1013.3
20260505083330 11 37 0.0 0.0 0.00 0.00 0.00 96 1013.2
20260505082826 12 60 0.0 0.0 0.00 0.00 0.00 96 1013.2
20260505082323 12 25 0.0 0.0 0.00 0.00 0.00 96 1013.2
20260505081819 12 176 0.0 0.0 0.00 0.00 0.00 96 1013.1
20260505081316 12 223 0.0 0.0 0.00 0.00 0.00 96 1013.1
20260505080813 12 92 0.0 0.0 0.00 0.00 0.00 95 1013.5
20260505080309 12 353 0.0 0.0 0.00 0.00 0.00 95 1013.4
20260505075804 12 129 0.0 0.0 0.00 0.00 0.00 95 1013.2
20260505075304 12 118 0.0 0.0 0.00 0.00 0.00 95 1013.0
20260505074759 12 124 0.0 1.6 0.00 0.00 0.00 95 1013.2
20260505074256 12 197 0.0 0.0 0.00 0.00 0.00 95 1012.9
20260505073753 12 75 0.0 0.0 0.00 0.00 0.00 96 1012.8
20260505073251 11 47 0.0 0.0 0.00 0.00 0.00 97 1012.9
20260505072747 11 22 0.0 0.0 0.00 0.00 0.00 96 1012.8
20260505072244 11 68 0.0 0.0 0.00 0.00 0.00 96 1012.8
20260505071739 11 10 0.0 0.0 0.00 0.00 0.00 96 1012.8
20260505071236 12 13 0.0 0.0 0.00 0.00 0.00 95 1012.6
20260505070734 12 298 0.0 0.0 0.00 0.00 0.00 95 1012.7
20260505070230 12 208 0.0 0.0 0.00 0.00 0.00 95 1012.8
20260505065726 12 98 0.0 0.0 0.00 0.00 0.00 94 1012.7
20260505065223 12 192 0.0 0.0 0.00 0.00 0.00 93 1012.5
20260505064720 12 76 0.0 0.0 0.00 0.00 0.00 93 1012.4
20260505064218 12 281 0.0 0.0 0.00 0.00 0.00 93 1012.3
20260505063715 13 343 0.0 0.0 0.00 0.00 0.00 91 1012.3
20260505063211 12 160 1.6 3.2 0.00 0.00 0.00 92 1012.2
20260505062707 13 210 0.0 0.0 0.00 0.00 0.00 91 1012.3
20260505062205 13 241 3.2 3.2 0.00 0.00 0.00 90 1012.2
20260505061702 13 57 0.0 0.0 0.00 0.00 0.00 90 1012.0
20260505061200 13 187 3.2 3.2 0.00 0.00 0.00 89 1012.1
20260505060657 13 101 0.0 0.0 0.00 0.00 0.00 90 1011.9
20260505060154 13 308 1.6 1.6 0.00 0.00 0.00 89 1011.8
20260505055649 13 227 0.0 1.6 0.00 0.00 0.00 89 1011.9
20260505055146 13 156 1.6 1.6 0.00 0.00 0.00 89 1011.6
20260505054643 13 58 0.0 0.0 0.00 0.00 0.00 88 1011.7
20260505054141 13 5 0.0 1.6 0.00 0.00 0.00 87 1011.9
20260505053639 13 251 1.6 1.6 0.00 0.00 0.00 86 1011.7
20260505053135 13 272 0.0 0.0 0.00 0.00 0.00 86 1011.5
20260505052632 13 312 0.0 0.0 0.00 0.00 0.00 86 1011.7
20260505052129 14 19 0.0 0.0 0.00 0.00 0.00 85 1011.6
20260505051626 14 348 0.0 0.0 0.00 0.00 0.00 85 1011.6
20260505051124 14 176 3.2 4.8 0.00 0.00 0.00 84 1011.5
20260505050622 14 176 3.2 4.8 0.00 0.00 0.00 85 1011.6
20260505050120 14 142 1.6 3.2 0.00 0.00 0.00 84 1011.4
20260505041549 16 309 0.0 1.6 0.00 0.00 0.00 75 1011.3
20260505041047 16 339 0.0 0.0 0.00 0.00 0.00 75 1011.3
20260505040544 16 31 0.0 0.0 0.00 0.00 0.00 74 1011.2
20260505040041 16 0 0.0 0.0 0.00 0.00 0.00 73 1011.0
20260505035537 16 35 3.2 3.2 0.00 0.00 0.00 72 1011.1
20260505035034 16 188 0.0 1.6 0.00 0.00 0.00 73 1010.9
20260505034530 16 214 1.6 1.6 0.00 0.00 0.00 73 1010.9
20260505034027 17 343 0.0 0.0 0.00 0.00 0.00 73 1010.9
20260505033525 17 163 1.6 3.2 0.00 0.00 0.00 73 1010.8
20260505033023 17 297 3.2 3.2 0.00 0.00 0.00 73 1010.5
20260505032520 17 30 0.0 0.0 0.00 0.00 0.00 74 1010.4
20260505032016 17 338 0.0 0.0 0.00 0.00 0.00 70 1010.6
20260505031514 18 5 0.0 0.0 0.00 0.00 0.00 71 1010.7
20260505031010 18 60 0.0 0.0 0.00 0.00 0.00 69 1010.4
20260505030507 18 40 0.0 0.0 0.00 0.00 0.00 68 1010.4
20260505030003 18 58 0.0 0.0 0.00 0.00 0.00 67 1010.4
20260505025459 19 40 0.0 0.0 0.00 0.00 0.00 65 1010.4
20260505024958 19 65 0.0 0.0 0.00 0.00 0.00 65 1010.2
20260505024454 20 1 3.2 3.2 0.00 0.00 0.00 64 1010.0
20260505023952 20 214 1.6 1.6 0.00 0.00 0.00 63 1010.1
20260505023449 20 106 3.2 3.2 0.00 0.00 0.00 62 1010.1
20260505022946 21 335 1.6 1.6 0.00 0.00 0.00 61 1010.0
20260505022444 21 172 1.6 1.6 0.00 0.00 0.00 60 1010.0
20260505021941 21 171 3.2 3.2 0.00 0.00 0.00 58 1010.1
20260505021437 22 143 1.6 1.6 0.00 0.00 0.00 58 1010.1
20260505020933 22 101 1.6 1.6 0.00 0.00 0.00 60 1009.9
20260505020428 22 97 1.6 1.6 0.00 0.00 0.00 59 1010.1
20260505015925 22 4 1.6 3.2 0.00 0.00 0.00 58 1010.1
20260505015422 22 67 0.0 1.6 0.00 0.00 0.00 58 1009.9
20260505014920 22 111 1.6 3.2 0.00 0.00 0.00 58 1009.9
20260505014416 23 114 3.2 4.8 0.00 0.00 0.00 56 1009.9
20260505013913 23 143 3.2 8.0 0.00 0.00 0.00 56 1009.8
20260505013410 23 213 1.6 3.2 0.00 0.00 0.00 54 1009.8
20260505012909 23 118 4.8 8.0 0.00 0.00 0.00 53 1009.8
20260505012406 24 113 1.6 1.6 0.00 0.00 0.00 53 1009.8
20260505011902 24 85 1.6 3.2 0.00 0.00 0.00 52 1009.9
20260505011359 24 279 6.4 11.3 0.00 0.00 0.00 52 1009.6
20260505010855 25 174 3.2 4.8 0.00 0.00 0.00 52 1009.8
20260505010351 25 2 0.0 0.0 0.00 0.00 0.00 51 1009.9
20260505005847 25 12 3.2 3.2 0.00 0.00 0.00 49 1009.8
20260505005344 25 330 1.6 3.2 0.00 0.00 0.00 51 1010.0
20260505004842 25 336 6.4 9.7 0.00 0.00 0.00 48 1009.8
20260505004338 25 318 1.6 1.6 0.00 0.00 0.00 46 1009.8
20260505003835 26 259 1.6 1.6 0.00 0.00 0.00 47 1009.7
20260505003333 26 299 1.6 3.2 0.00 0.00 0.00 44 1009.8
20260505002828 26 97 4.8 4.8 0.00 0.00 0.00 44 1009.7
20260505002326 26 80 1.6 3.2 0.00 0.00 0.00 46 1009.6
20260505001824 26 182 1.6 3.2 0.00 0.00 0.00 47 1009.7
20260505001320 27 224 6.4 9.7 0.00 0.00 0.00 46 1009.8
20260505000818 27 94 1.6 1.6 0.00 0.00 0.00 46 1009.7
20260505000316 26 330 1.6 3.2 0.00 0.00 0.00 51 1009.4
20260504235812 26 12 4.8 8.0 0.00 0.00 0.00 46 1009.9
20260504235309 26 333 8.0 11.3 0.00 0.00 0.00 47 1009.7
20260504234806 26 359 4.8 9.7 0.00 0.00 0.00 49 1009.6
20260504234303 26 317 4.8 4.8 0.00 0.00 0.00 46 1009.6
20260504233759 26 77 4.8 8.0 0.00 0.00 0.00 47 1009.6
20260504233255 25 316 8.0 9.7 0.00 0.00 0.00 48 1009.7
20260504232752 26 328 1.6 1.6 0.00 0.00 0.00 49 1009.7
20260504232249 27 308 6.4 9.7 0.00 0.00 0.00 52 1009.6
20260504231746 27 227 1.6 3.2 0.00 0.00 0.00 49 1009.8
20260504231243 26 327 3.2 4.8 0.00 0.00 0.00 47 1009.9
20260504230738 26 33 1.6 1.6 0.00 0.00 0.00 49 1009.8
20260504230237 26 326 3.2 3.2 0.00 0.00 0.00 50 1010.0
20260504225736 26 316 8.0 9.7 0.00 0.00 0.00 51 1010.0
20260504225231 27 324 9.7 12.9 0.00 0.00 0.00 48 1009.8
20260504224729 27 153 1.6 4.8 0.00 0.00 0.00 51 1010.0
20260504224226 26 312 4.8 8.0 0.00 0.00 0.00 48 1009.9
20260504223722 26 17 4.8 4.8 0.00 0.00 0.00 51 1010.1
20260504223218 27 352 3.2 8.0 0.00 0.00 0.00 52 1010.1
20260504222715 27 299 4.8 4.8 0.00 0.00 0.00 52 1010.2
20260504222212 27 228 1.6 1.6 0.00 0.00 0.00 47 1010.0
20260504221709 26 192 4.8 8.0 0.00 0.00 0.00 49 1010.2
20260504221206 26 331 11.3 16.1 0.00 0.00 0.00 50 1010.3
20260504220703 26 47 0.0 1.6 0.00 0.00 0.00 53 1010.1
20260504220200 26 330 12.9 14.5 0.00 0.00 0.00 50 1010.3
20260504215656 26 47 0.0 1.6 0.00 0.00 0.00 55 1010.1
20260504215154 26 306 4.8 4.8 0.00 0.00 0.00 51 1010.4
20260504214649 26 351 6.4 8.0 0.00 0.00 0.00 55 1010.5
20260504214146 26 6 3.2 3.2 0.00 0.00 0.00 51 1010.4
20260504213643 26 288 9.7 12.9 0.00 0.00 0.00 50 1010.3
20260504213139 26 334 3.2 3.2 0.00 0.00 0.00 50 1010.4
20260504212636 26 79 4.8 8.0 0.00 0.00 0.00 49 1010.3
20260504212133 27 353 8.0 9.7 0.00 0.00 0.00 50 1010.4
20260504211630 26 317 1.6 1.6 0.00 0.00 0.00 53 1010.3
20260504211126 27 327 4.8 4.8 0.00 0.00 0.00 49 1010.5
20260504210625 27 245 1.6 1.6 0.00 0.00 0.00 53 1010.5
20260504210120 27 165 3.2 9.7 0.00 0.00 0.00 51 1010.4
20260504205618 27 329 1.6 3.2 0.00 0.00 0.00 52 1010.4
20260504205116 26 305 8.0 12.9 0.00 0.00 0.00 55 1010.5
20260504204614 26 260 4.8 4.8 0.00 0.00 0.00 50 1010.7
20260504204112 27 88 3.2 3.2 0.00 0.00 0.00 49 1010.5
20260504203611 27 156 3.2 3.2 0.00 0.00 0.00 52 1010.7
20260504203108 26 221 3.2 3.2 0.00 0.00 0.00 52 1010.8
20260504202603 26 217 3.2 3.2 0.00 0.00 0.00 48 1010.8
20260504202100 26 338 1.6 3.2 0.00 0.00 0.00 54 1010.8
20260504201556 27 124 0.0 1.6 0.00 0.00 0.00 49 1010.7
20260504201055 27 329 1.6 3.2 0.00 0.00 0.00 53 1010.8
20260504200550 26 340 1.6 1.6 0.00 0.00 0.00 51 1010.8
20260504200048 26 310 6.4 8.0 0.00 0.00 0.00 49 1010.6
20260504195544 26 181 3.2 3.2 0.00 0.00 0.00 49 1010.7
20260504195040 26 224 1.6 3.2 0.00 0.00 0.00 52 1010.9
20260504194537 26 241 1.6 3.2 0.00 0.00 0.00 50 1010.9
20260504194032 26 300 4.8 4.8 0.00 0.00 0.00 52 1010.9
20260504193529 26 24 0.0 1.6 0.00 0.00 0.00 54 1011.1
20260504193028 25 195 1.6 4.8 0.00 0.00 0.00 58 1011.0
20260504192526 25 358 1.6 1.6 0.00 0.00 0.00 56 1011.1
20260504192024 25 353 1.6 1.6 0.00 0.00 0.00 59 1011.1
20260504191521 25 319 0.0 0.0 0.00 0.00 0.00 57 1011.3
20260504191017 25 10 1.6 1.6 0.00 0.00 0.00 60 1011.1
20260504190514 25 174 3.2 3.2 0.00 0.00 0.00 54 1011.1
20260504190010 25 330 1.6 3.2 0.00 0.00 0.00 59 1011.4
20260504185507 23 333 1.6 1.6 0.00 0.00 0.00 57 1011.0
20260504185003 23 345 4.8 8.0 0.00 0.00 0.00 62 1011.2
20260504184459 23 358 6.4 9.7 0.00 0.00 0.00 61 1011.3
20260504183954 23 335 4.8 4.8 0.00 0.00 0.00 61 1011.2
20260504183452 23 326 6.4 8.0 0.00 0.00 0.00 64 1011.3
20260504182950 23 354 4.8 4.8 0.00 0.00 0.00 60 1011.4
20260504182446 24 313 3.2 3.2 0.00 0.00 0.00 60 1011.2
20260504181944 23 303 1.6 1.6 0.00 0.00 0.00 58 1011.3
20260504181441 23 317 3.2 3.2 0.00 0.00 0.00 60 1011.3
20260504180939 23 319 3.2 4.8 0.00 0.00 0.00 62 1011.5
20260504180438 23 11 4.8 4.8 0.00 0.00 0.00 60 1011.3
20260504175936 23 303 1.6 1.6 0.00 0.00 0.00 62 1011.4
20260504175432 22 238 3.2 4.8 0.00 0.00 0.00 63 1011.5
20260504174930 23 340 4.8 4.8 0.00 0.00 0.00 64 1011.4
20260504174427 22 287 4.8 8.0 0.00 0.00 0.00 64 1011.3
20260504173925 22 348 1.6 1.6 0.00 0.00 0.00 62 1011.6
20260504173421 22 339 4.8 4.8 0.00 0.00 0.00 62 1011.5
20260504172919 22 326 1.6 3.2 0.00 0.00 0.00 61 1011.5
20260504172414 22 311 3.2 3.2 0.00 0.00 0.00 62 1011.3
20260504171911 22 350 0.0 1.6 0.00 0.00 0.00 59 1011.3
20260504171408 22 302 6.4 8.0 0.00 0.00 0.00 61 1011.2
20260504170905 22 309 3.2 3.2 0.00 0.00 0.00 60 1011.1
20260504170402 21 11 1.6 3.2 0.00 0.00 0.00 62 1011.1
20260504160320 18 12 0.0 0.0 0.00 0.00 0.00 72 1011.0
20260504150745 14 322 0.0 0.0 0.00 0.00 0.00 99 1010.9
20260504150242 13 305 0.0 0.0 0.00 0.00 0.00 99 1010.8